Theta_e
344 343 346 349 349 348 348 348 349 349 350 349 349 349 349 349 349 349 348 348 348 347 346 345 345 343 343 342 341 341 341 338 337 340 340 339 339 340 340 340 341 341 343 344 344 342 341 340 340 340 339 338 338 338 337 337 337 338 339 339 340 340 342 342 342 339 338 338 338 338 337 336 338 338 337 340 342 341 340 339 339 337 336 338 340
343 345 345 346 349 348 347 347 349 350 349 349 349 349 349 348 348 348 348 348 347 347 346 344 344 343 342 341 340 341 338 338 339 340 340 340 341 341 341 342 342 342 342 344 344 341 339 340 339 339 340 339 338 337 337 336 336 336 338 339 339 340 340 340 340 340 340 339 339 337 337 336 337 337 338 340 341 340 340 339 339 336 335 340 341
344 344 345 346 349 348 348 347 346 350 349 349 349 348 348 348 348 348 348 347 347 347 345 345 344 343 342 340 339 337 338 339 339 339 340 340 340 340 342 341 341 340 341 342 342 341 338 337 339 339 339 338 337 337 337 336 337 336 338 338 338 338 338 339 340 341 340 341 338 338 338 338 336 336 339 341 341 341 340 339 338 338 336 340 340
343 344 345 347 348 348 347 347 346 347 349 349 348 348 348 348 348 348 348 347 347 346 344 344 344 343 341 338 337 338 339 339 339 338 339 339 339 340 340 340 340 341 341 340 340 341 341 340 339 339 337 337 337 337 337 336 336 337 336 336 336 336 337 338 338 338 339 341 339 338 335 332 334 337 339 339 340 340 340 339 338 340 340 340 340
343 345 344 345 345 347 348 347 345 345 349 348 348 347 348 348 348 348 348 348 347 345 344 343 343 342 339 338 339 339 338 337 339 339 338 341 341 340 340 340 340 340 341 341 340 340 339 339 338 337 337 337 336 335 335 335 336 336 335 335 335 335 336 335 336 336 338 338 342 338 332 332 332 337 338 339 339 339 339 338 339 340 339 340 340
344 344 343 344 344 346 346 345 345 345 344 347 348 348 348 347 347 347 346 347 347 345 345 343 342 340 339 339 339 339 341 340 339 339 339 338 338 339 340 340 341 341 341 340 340 339 339 338 337 336 336 335 334 334 333 334 334 334 334 334 334 334 334 335 336 336 338 339 340 335 333 332 331 334 337 338 338 339 339 339 340 340 339 339 339
343 344 343 344 343 345 345 346 345 344 343 344 347 348 348 347 347 346 347 347 346 345 344 342 340 340 339 338 337 337 337 338 338 339 340 341 339 338 339 340 340 340 340 340 341 340 340 340 338 336 335 335 334 333 332 333 333 332 332 332 332 333 333 333 335 336 338 340 334 334 333 333 333 334 338 337 338 340 339 340 340 340 340 340 338
343 344 344 344 344 344 345 346 344 343 343 343 345 348 347 348 347 346 346 346 346 345 343 341 340 340 339 338 338 339 341 340 340 340 340 338 338 338 339 339 340 339 339 339 339 339 338 338 338 337 335 335 334 333 333 333 332 331 331 331 331 332 332 334 336 336 336 333 333 334 335 334 333 334 336 337 338 340 340 339 340 340 338 336 335
341 343 344 344 343 343 345 345 344 343 342 342 343 345 347 346 346 345 346 346 346 345 343 342 341 340 339 339 340 340 340 339 339 338 338 339 339 339 338 338 339 338 338 339 338 338 337 337 337 337 335 334 333 333 333 332 332 331 331 330 330 331 332 334 334 337 334 332 333 333 335 334 332 332 336 336 340 339 341 339 339 338 336 334 333
341 341 344 344 343 342 345 345 343 342 342 341 342 342 343 343 344 343 343 343 346 345 343 342 342 341 340 341 341 340 339 337 336 336 338 339 339 337 336 336 337 338 338 338 338 338 337 337 336 336 334 334 334 333 332 332 331 331 330 330 330 331 333 334 336 335 328 331 334 334 336 337 332 333 336 337 341 341 338 337 334 335 334 333 332
340 341 343 344 342 341 345 345 344 342 341 341 340 340 341 340 343 342 342 342 342 341 341 340 339 338 341 342 342 340 338 338 337 337 337 338 337 337 338 338 337 337 338 338 337 337 336 336 336 335 334 334 332 332 332 332 331 331 330 330 331 332 332 333 336 326 326 328 332 333 337 338 331 332 337 339 340 340 337 337 335 334 333 331 332
339 340 344 343 345 341 345 345 344 342 341 341 341 340 341 341 341 341 341 342 341 340 339 339 339 342 343 344 343 341 339 338 337 336 337 336 336 337 338 337 337 336 336 336 336 336 336 336 335 335 334 333 332 332 331 331 331 330 329 329 330 331 332 334 329 325 325 328 333 333 331 331 331 335 339 339 339 339 337 336 336 334 333 332 331
339 343 343 342 342 340 344 345 344 343 341 341 341 341 340 341 341 340 340 341 341 340 339 340 341 343 343 343 343 341 339 338 336 335 336 337 336 336 336 336 336 335 335 335 335 335 335 335 335 334 335 334 332 332 331 331 330 330 329 329 330 330 332 332 327 325 327 327 331 332 331 330 331 337 338 339 339 339 338 337 336 334 332 331 330
339 342 343 342 342 345 339 343 344 343 342 343 341 341 340 341 341 340 340 340 341 340 339 341 341 344 343 343 343 341 340 339 339 339 338 336 334 336 337 336 336 335 335 334 334 334 334 335 334 334 333 333 332 333 331 331 330 330 330 329 330 330 331 330 329 325 326 328 332 332 332 332 332 337 338 339 339 338 337 336 334 333 332 330 330
340 341 343 343 342 342 343 339 342 342 344 344 343 341 341 340 340 340 340 340 339 340 341 341 341 343 342 342 342 341 340 340 340 339 337 336 337 338 336 335 334 334 334 334 334 334 334 334 335 334 332 333 332 333 332 331 330 330 330 330 330 333 329 324 328 325 327 332 331 332 332 332 337 338 338 339 338 338 336 335 332 331 330 329 329
342 341 342 343 341 342 341 344 336 338 341 342 343 343 342 341 340 339 341 340 340 342 341 340 340 340 340 342 342 341 341 340 339 338 340 338 338 337 336 334 334 335 334 334 334 334 333 334 334 333 332 331 332 332 332 331 330 330 329 330 331 330 327 325 324 324 328 331 331 331 330 333 337 337 338 339 338 337 335 334 331 330 330 329 328
342 341 340 342 342 341 340 341 338 334 334 337 339 340 341 342 342 341 343 344 344 342 341 341 340 340 339 340 341 341 340 340 340 338 338 338 338 337 335 335 334 335 334 334 334 333 334 333 333 332 332 331 332 332 333 332 330 330 330 330 331 329 327 325 324 324 329 330 332 332 331 332 335 337 338 338 337 336 335 332 330 329 329 329 327
341 341 340 340 342 341 339 339 338 338 338 334 334 337 338 340 340 341 344 343 343 343 342 343 342 343 341 340 340 340 340 340 339 339 338 338 339 338 336 335 334 334 333 334 333 333 333 333 333 333 333 332 332 332 332 331 330 329 329 330 329 328 326 325 321 325 330 332 330 331 330 337 336 336 337 337 337 335 334 331 330 329 329 328 327
338 338 340 339 340 341 340 339 339 339 338 337 337 335 334 336 339 339 342 342 342 341 341 339 339 338 337 336 336 335 337 338 339 338 337 336 335 335 337 336 334 334 334 333 333 333 333 333 334 333 334 333 332 332 331 330 329 329 328 329 329 326 324 323 321 325 328 328 329 327 330 336 336 336 336 337 337 335 333 332 330 329 328 327 327
338 338 338 339 339 339 339 339 339 338 338 338 337 337 331 332 335 337 338 339 339 337 336 334 333 331 330 331 331 330 330 330 329 330 333 333 333 330 334 336 334 334 333 332 333 333 334 333 334 334 334 334 333 331 331 330 329 329 329 328 326 324 321 321 321 322 327 327 327 326 332 335 335 336 336 336 336 334 332 331 329 328 327 328 327
338 336 337 337 338 337 338 338 339 339 339 339 338 337 334 330 331 332 333 334 334 332 329 325 324 324 325 326 329 333 332 330 331 330 328 328 326 327 333 335 335 333 333 332 332 333 334 333 333 333 333 333 332 332 331 331 330 330 329 327 322 320 320 320 319 319 324 326 326 324 333 336 335 335 335 335 335 333 332 330 328 328 327 326 326
333 334 336 337 336 337 337 338 338 338 338 340 340 339 335 334 336 334 333 330 328 327 328 329 330 328 323 325 331 332 332 332 332 333 327 327 325 324 327 331 333 333 334 332 332 332 333 333 332 332 331 332 328 324 325 327 328 329 326 322 318 320 319 319 319 318 318 322 323 326 332 335 334 336 335 335 334 332 331 329 328 327 327 326 326
332 333 334 336 337 337 337 337 337 337 336 337 339 338 334 334 334 336 335 330 331 330 332 331 331 329 328 330 330 330 328 330 331 331 329 323 324 322 325 328 330 330 331 332 332 332 333 332 331 331 331 331 323 322 322 321 321 323 320 319 320 319 320 319 318 317 315 319 321 327 330 334 334 334 334 334 333 331 329 328 327 327 326 326 325
332 333 333 336 336 335 337 337 336 336 336 335 337 337 334 334 332 334 334 334 332 332 333 333 332 332 331 331 329 327 327 328 329 330 329 325 323 321 322 324 325 325 325 326 329 331 331 330 328 329 328 324 322 324 323 320 321 320 319 320 321 321 319 318 319 317 315 321 320 326 329 332 332 332 333 332 331 329 328 326 326 327 326 326 325
331 333 332 334 335 335 335 336 336 336 335 335 334 334 336 335 333 332 333 335 334 333 333 333 332 333 332 330 331 327 327 328 327 326 326 327 326 325 323 324 323 322 320 321 321 323 323 322 320 321 320 321 321 322 321 321 320 320 320 319 320 320 319 318 318 317 316 316 317 324 327 329 333 332 332 331 330 328 326 325 325 326 326 325 325
330 329 330 331 333 334 334 334 335 335 335 335 334 333 334 334 332 332 332 334 335 333 332 332 332 332 331 330 329 326 324 324 325 326 326 326 325 324 324 325 324 323 318 321 322 323 320 322 322 320 320 321 322 321 319 319 320 320 320 321 321 319 319 319 318 318 317 314 316 322 326 326 330 331 330 331 330 328 325 325 325 325 325 324 323
328 328 329 330 332 333 333 334 334 334 334 335 335 333 332 332 332 333 332 332 334 333 331 330 332 332 331 330 327 324 324 322 322 321 323 325 326 326 326 326 327 326 321 322 322 323 320 320 322 321 322 322 321 320 321 322 322 322 321 321 320 319 318 317 317 317 317 311 313 320 324 325 327 329 331 331 330 327 325 325 325 325 324 324 324
327 328 328 329 330 332 333 333 334 334 333 334 334 332 332 332 332 331 332 329 331 332 330 330 331 331 330 329 328 326 324 322 323 321 319 321 322 324 325 325 325 323 323 323 321 319 320 319 321 322 322 322 321 321 321 323 322 321 321 320 320 320 318 318 317 317 317 312 312 316 322 326 325 326 329 333 327 327 326 326 324 324 324 324 324
327 328 328 328 329 331 332 332 333 333 333 334 333 332 332 332 331 331 331 329 330 329 330 330 329 329 330 329 327 325 324 323 322 321 320 319 319 320 321 322 323 322 323 322 321 319 319 319 319 319 320 320 320 321 321 321 321 321 320 320 319 320 319 317 316 317 317 314 311 314 321 323 324 325 327 329 329 329 328 326 326 324 324 323 324
328 329 329 329 329 331 331 331 332 333 333 332 331 331 331 331 332 331 331 330 330 330 329 328 328 328 329 329 327 326 324 321 321 320 319 318 319 320 320 320 320 321 322 322 321 319 319 318 317 318 319 320 320 321 320 320 319 319 320 320 320 320 319 317 315 315 316 316 310 311 316 320 324 324 325 326 329 330 328 327 326 325 323 324 323
328 328 329 329 329 330 330 331 332 331 333 332 331 331 331 330 331 331 331 331 331 331 330 329 328 327 326 328 327 326 324 322 321 320 319 319 319 319 320 320 319 319 321 321 322 319 318 317 317 317 318 319 320 319 318 319 319 320 320 321 321 321 319 319 316 316 316 316 312 309 312 317 321 324 325 325 327 330 330 328 326 325 326 324 324
328 328 329 330 330 330 330 330 331 332 331 332 331 331 331 331 330 331 330 331 331 330 330 330 328 329 327 326 327 326 323 322 322 321 320 320 319 318 319 319 319 320 321 321 320 319 318 318 318 318 318 320 320 319 320 318 318 319 319 320 320 321 320 318 317 316 316 315 314 313 313 313 318 320 323 324 325 328 330 330 327 325 324 324 324
329 330 330 330 330 330 330 330 331 331 331 331 331 331 331 332 331 330 330 332 331 331 330 330 330 330 329 327 326 325 323 323 322 322 320 321 320 319 319 319 320 320 321 321 321 319 318 317 317 318 318 318 318 318 320 320 319 318 318 320 320 320 320 318 318 317 316 316 316 314 315 313 312 316 318 320 324 326 329 330 328 326 325 324 324
329 328 329 330 331 332 331 332 331 331 331 332 330 331 331 331 331 331 330 331 332 331 330 330 330 330 329 329 328 326 325 325 323 322 322 321 320 320 319 319 318 319 319 319 319 318 317 316 316 317 316 315 315 316 316 318 318 317 317 318 318 319 320 318 316 316 316 316 315 316 314 313 313 314 314 316 319 323 327 330 329 326 324 324 324
328 328 328 330 330 331 331 331 330 330 330 331 329 331 331 331 330 331 331 330 331 331 330 330 330 330 330 329 329 328 326 326 324 322 321 320 320 320 319 319 318 318 318 318 319 318 317 316 315 317 316 314 314 316 317 317 317 318 318 317 318 318 317 319 318 316 316 316 316 315 315 314 310 313 317 314 314 318 322 327 329 326 325 324 325
328 329 329 329 330 330 330 330 329 330 330 330 330 329 330 331 331 328 331 331 330 331 331 331 330 329 329 329 329 329 328 327 325 323 321 321 320 320 320 321 320 319 318 317 318 317 316 317 316 316 314 314 314 314 315 317 317 318 317 317 317 317 317 317 317 317 317 316 315 315 313 313 312 310 311 314 315 316 319 321 327 327 327 325 325
328 329 329 329 329 330 329 329 329 330 330 331 330 329 329 329 330 330 330 330 331 331 331 331 330 329 329 329 329 329 329 329 327 325 322 321 320 320 321 321 322 320 318 317 317 317 316 317 316 316 316 314 314 315 315 316 317 318 317 317 318 318 318 317 317 317 317 316 315 314 314 313 312 312 310 309 312 314 315 318 322 324 324 324 324
326 328 329 330 329 329 329 329 330 330 330 331 331 330 329 329 328 329 328 329 330 331 332 331 330 329 329 329 329 329 328 329 329 327 324 323 321 320 321 322 322 321 320 318 317 317 317 318 316 316 316 315 314 315 315 316 318 318 317 317 317 317 317 317 318 314 316 315 315 313 314 314 314 312 311 311 310 313 312 314 317 319 318 319 325
325 326 328 329 330 330 329 328 329 330 330 331 330 330 330 329 328 327 328 328 329 331 332 330 330 330 329 329 329 328 327 328 328 328 326 324 321 321 321 321 321 321 320 320 318 318 317 317 317 316 316 316 316 315 316 317 318 317 317 317 317 317 318 318 317 315 316 316 316 315 315 314 314 312 313 311 310 313 312 311 311 310 313 315 322
324 324 325 327 328 330 329 329 329 330 330 330 330 329 329 327 326 326 326 326 328 329 331 331 331 330 329 329 328 329 328 327 328 328 327 325 324 321 321 321 321 321 320 319 318 318 317 316 315 316 315 316 316 317 316 314 314 316 315 317 317 316 316 316 317 317 316 316 317 315 314 314 313 313 312 312 312 312 313 312 311 312 311 312 315
323 323 323 325 326 328 328 328 329 330 329 328 329 329 327 326 326 325 325 326 327 328 329 330 330 330 330 329 328 328 329 328 327 328 327 324 325 323 321 321 321 320 320 319 319 319 319 318 316 315 315 315 315 317 316 314 312 312 312 314 315 316 316 316 317 317 316 315 315 314 313 313 312 312 312 312 312 311 313 312 311 311 311 310 310
322 323 322 323 325 326 327 328 329 329 329 329 329 328 329 328 326 325 325 326 326 325 326 328 329 330 329 329 328 328 329 328 326 327 326 326 325 324 321 321 321 321 320 319 319 317 318 318 318 316 316 315 314 316 317 316 312 311 308 310 310 312 315 315 316 317 317 316 315 313 312 312 311 311 311 311 311 311 311 312 311 311 311 310 309
320 322 322 323 324 325 326 327 328 329 329 329 329 328 329 329 328 326 326 325 327 327 327 327 328 329 329 329 328 328 328 328 327 325 326 326 326 325 322 321 321 320 319 319 319 319 319 318 318 317 314 315 315 316 316 317 312 310 309 307 304 307 310 312 315 317 317 316 314 312 311 310 311 310 310 310 310 310 310 310 310 310 310 309 308
317 317 321 323 324 324 325 326 327 329 329 329 327 329 329 329 329 327 327 326 325 326 327 327 327 328 327 328 328 328 328 328 328 326 325 326 326 325 324 322 321 321 320 318 318 319 319 318 318 317 316 313 314 314 317 317 315 312 306 307 303 303 300 307 311 314 316 316 314 314 311 311 310 309 309 309 309 309 309 309 309 309 308 308 306
316 316 318 321 324 324 325 326 326 327 329 327 327 328 328 326 327 326 325 325 323 324 324 324 325 325 326 327 327 328 328 328 329 328 325 325 326 326 324 323 322 321 320 319 319 319 319 319 319 317 316 315 313 314 315 317 316 316 311 304 302 303 303 302 310 310 313 313 313 314 312 311 309 308 308 308 308 309 309 309 309 307 307 306 304
316 317 318 319 321 323 325 326 326 326 327 328 328 328 327 326 325 324 322 322 321 321 321 322 322 323 324 326 326 327 328 328 328 328 326 325 325 325 324 323 322 321 320 320 319 319 319 319 319 319 317 316 315 314 313 315 317 316 315 311 308 304 303 305 305 301 308 314 313 313 313 312 311 308 308 308 308 308 307 309 308 307 306 305 304
317 318 318 318 319 321 323 325 326 326 327 327 328 326 326 326 326 325 324 323 322 322 324 324 324 324 324 324 325 326 327 327 327 328 327 325 325 325 325 324 323 322 320 320 319 319 319 319 319 319 318 317 315 312 313 314 315 316 316 315 313 311 310 306 303 302 300 304 307 309 310 311 311 309 308 308 309 308 308 307 307 307 305 305 303
317 318 318 319 318 318 320 323 324 324 326 327 327 327 326 326 325 325 324 324 323 322 323 323 324 324 324 324 324 325 326 327 327 327 327 326 325 325 325 325 324 323 321 320 320 320 319 319 319 319 318 317 316 313 312 314 313 314 316 315 313 313 312 311 307 308 301 297 302 304 305 308 309 310 310 309 309 308 308 307 307 305 305 304 303
315 317 317 317 318 319 319 321 323 324 325 326 326 327 325 325 326 325 324 324 324 324 323 323 323 323 323 324 324 324 325 326 326 326 326 327 324 325 325 325 325 324 321 322 321 321 319 319 318 318 317 317 317 316 313 313 314 314 314 313 314 313 312 311 311 310 307 303 304 303 302 302 305 306 308 309 309 308 308 308 307 305 303 303 302
315 317 317 316 317 317 318 319 321 323 324 325 325 326 326 324 325 325 325 325 324 324 323 323 322 323 322 323 324 324 324 325 325 326 326 326 326 324 325 325 325 325 321 322 322 321 321 320 319 319 318 317 317 316 315 313 314 315 315 314 312 311 310 310 310 310 309 310 308 304 303 302 301 304 305 307 308 309 308 307 306 304 303 302 301
314 316 315 315 315 317 317 318 319 321 323 324 325 325 326 325 324 325 325 325 324 323 323 322 322 322 322 322 323 324 324 324 325 325 326 326 326 324 324 324 325 323 322 323 323 322 322 321 321 320 319 318 317 317 315 315 313 313 315 314 313 312 311 309 309 310 309 307 307 308 307 303 304 304 303 305 306 307 307 306 306 304 303 303 301
Wind_Speed
8 10 6 7 8 9 9 10 9 9 9 9 10 10 10 9 10 10 10 10 12 12 12 12 12 13 12 12 12 12 12 11 11 10 11 10 10 12 13 11 12 12 14 15 15 16 15 14 15 15 14 14 14 14 14 13 14 13 13 14 14 13 13 13 12 13 13 14 15 14 13 13 15 13 13 14 15 14 11 13 11 7 6 11 16
9 9 6 5 9 9 8 9 10 9 9 9 9 9 9 9 9 9 10 11 11 12 11 11 12 12 12 11 11 11 12 12 12 11 10 11 12 13 12 13 13 12 13 15 15 15 14 14 14 15 14 13 13 13 13 13 12 12 12 12 12 12 12 12 11 9 9 13 14 15 14 15 15 14 13 14 14 14 13 13 12 6 4 15 17
9 8 7 6 9 9 9 9 9 10 8 8 8 9 9 9 9 9 10 11 11 12 12 11 11 12 11 11 11 11 11 12 12 11 10 11 11 12 12 11 11 12 12 12 13 15 14 13 14 14 14 13 13 13 12 13 12 12 12 12 12 10 10 9 9 9 9 9 14 15 14 14 14 13 14 15 14 13 13 13 12 12 9 17 16
10 8 7 6 9 9 10 9 7 10 10 8 8 8 8 9 9 9 9 11 11 12 12 11 11 11 11 11 10 11 12 12 11 10 11 10 11 11 11 11 11 11 12 12 13 14 15 14 13 13 12 12 12 13 12 12 12 12 11 10 9 8 7 8 7 7 6 5 4 2 4 5 6 12 13 13 14 13 12 13 14 15 17 16 18
11 8 8 5 5 8 9 8 8 8 10 8 7 7 8 8 8 8 9 10 11 12 11 12 12 11 10 10 11 12 11 11 10 11 12 13 12 12 11 11 10 11 12 12 12 13 13 13 12 13 12 12 12 12 12 11 11 10 10 9 7 6 7 8 8 8 8 7 5 6 5 5 4 10 11 12 13 12 12 12 15 16 17 18 18
9 9 7 6 6 6 9 9 8 8 8 8 8 7 8 7 7 8 8 10 11 12 12 12 12 11 9 9 11 12 11 10 11 11 11 10 11 12 11 11 12 11 11 11 12 12 11 12 12 12 12 12 12 12 11 11 11 9 9 8 6 7 7 7 8 8 8 8 5 4 4 4 3 4 11 10 12 12 12 13 15 15 17 18 18
9 7 8 8 6 7 9 9 9 7 7 8 8 7 7 7 7 7 9 9 11 12 12 11 11 11 10 10 10 10 11 10 11 11 12 12 11 10 10 10 10 11 11 11 11 11 11 11 12 12 11 11 11 11 11 11 10 10 10 8 7 8 9 10 10 10 7 1 5 5 5 4 4 3 10 9 10 13 12 15 16 16 16 17 17
6 5 7 7 8 9 9 9 9 9 7 6 7 8 7 7 7 8 8 9 10 12 12 11 10 10 10 9 9 11 11 11 11 11 10 11 10 9 11 11 11 11 11 11 11 11 10 10 11 12 11 10 10 10 10 10 10 10 10 9 8 10 9 11 11 11 11 4 4 4 5 3 4 3 9 9 11 13 14 14 15 16 16 16 13
5 6 7 8 8 12 9 9 10 9 8 7 6 6 7 6 8 8 9 8 8 11 12 11 10 10 9 9 11 11 11 11 11 11 10 9 10 10 9 10 10 9 10 10 10 9 9 9 10 10 10 10 10 9 9 9 10 10 10 9 9 10 11 12 12 9 6 5 5 4 3 3 4 3 8 9 11 12 14 12 13 16 16 14 14
5 6 8 9 7 11 10 9 10 8 8 7 6 5 6 5 8 8 7 7 9 10 9 9 10 9 9 9 10 10 10 10 10 10 9 9 9 9 8 9 8 9 9 9 9 9 9 9 9 10 9 9 9 9 9 9 9 9 9 9 9 10 10 12 12 7 4 6 5 3 3 7 4 3 7 10 13 15 14 11 10 10 10 14 16
4 6 7 9 10 11 10 9 10 9 8 7 5 4 6 2 8 8 7 8 6 5 6 6 6 6 9 9 9 11 10 10 10 10 10 9 9 9 9 8 7 8 8 8 8 8 9 8 8 9 9 9 8 8 8 8 8 8 9 8 9 10 11 12 10 4 6 6 4 2 3 9 3 2 9 11 13 14 10 13 13 14 15 15 15
5 4 8 8 10 11 9 8 10 10 9 8 7 5 6 3 5 7 8 8 7 6 5 5 6 6 8 10 9 10 10 10 9 9 10 9 9 9 8 7 7 7 7 7 8 8 8 8 8 9 8 8 8 8 7 7 8 8 8 8 9 10 11 11 6 4 4 4 4 4 5 5 3 3 12 10 13 15 13 13 14 14 14 14 14
5 10 8 7 6 8 8 8 8 8 8 8 8 7 6 3 5 7 7 8 7 6 6 6 6 5 7 7 8 10 10 10 9 9 9 9 8 8 7 7 7 6 6 6 7 7 7 8 8 7 8 7 7 7 7 7 7 7 8 8 8 9 9 11 5 4 4 4 3 3 4 3 2 9 9 12 13 14 14 15 14 14 14 14 14
4 9 7 7 5 7 7 7 6 6 6 5 7 7 6 5 7 7 6 8 7 6 7 7 7 7 7 7 7 7 9 9 10 10 9 8 7 8 7 7 7 6 6 6 6 6 7 7 7 7 7 6 6 6 6 6 7 7 7 8 7 7 7 7 1 3 2 4 3 5 5 4 3 7 10 12 13 14 15 14 13 14 14 13 14
4 4 7 7 6 4 8 7 6 5 3 3 4 6 6 5 6 5 7 7 6 6 8 7 8 10 8 8 7 7 7 10 10 10 9 8 8 8 7 6 5 6 6 5 5 5 6 6 7 7 6 5 6 5 6 6 6 6 7 7 8 7 8 5 1 1 3 4 3 4 5 2 5 9 10 13 13 14 15 13 13 13 13 13 13
5 4 4 8 6 5 4 7 7 6 4 3 3 3 4 4 4 1 5 6 6 10 9 8 7 7 8 8 7 6 7 8 8 8 8 9 8 8 8 6 6 5 5 5 5 5 5 6 7 6 6 5 5 6 5 6 5 5 5 6 7 7 7 5 2 3 5 4 3 5 3 3 7 7 11 14 14 15 14 13 13 13 13 13 13
6 4 3 7 6 6 5 4 5 8 6 4 3 2 3 4 5 5 4 8 8 9 9 9 9 7 6 7 9 7 6 6 4 6 8 9 9 7 7 7 6 6 5 5 5 5 6 6 6 5 5 6 5 5 6 5 5 3 3 5 7 8 9 8 2 4 5 3 3 4 4 3 5 7 10 13 15 14 13 13 13 12 12 13 12
5 3 2 4 6 6 6 6 6 4 4 5 4 3 3 4 5 4 6 8 8 6 6 5 9 9 9 8 8 7 7 6 5 5 7 6 5 6 7 7 6 6 5 4 4 5 5 6 5 5 5 5 5 5 5 5 4 2 4 5 7 9 9 9 1 4 4 4 5 4 4 2 7 7 9 12 14 14 13 12 12 13 12 12 12
3 3 3 3 5 5 5 7 5 5 5 4 3 3 6 5 5 4 5 8 8 8 8 9 10 10 10 10 9 9 8 7 7 6 4 4 5 4 4 5 6 6 5 4 4 5 6 6 5 5 5 5 6 5 5 5 3 2 5 5 5 7 10 6 2 3 5 5 5 5 4 5 7 8 9 12 13 13 13 11 11 12 12 11 11
3 2 3 3 3 4 4 6 6 5 5 5 5 5 5 8 7 6 6 7 9 9 10 9 9 10 9 9 9 7 7 7 9 6 5 5 5 4 5 5 7 7 6 5 5 5 6 5 5 5 6 6 6 6 6 5 3 4 4 6 7 8 4 4 1 3 5 5 5 5 5 4 7 9 8 11 12 12 12 11 10 11 12 11 10
3 3 3 3 3 3 4 6 6 6 6 6 5 6 6 7 6 8 7 8 9 10 10 10 9 7 7 7 8 6 5 4 6 5 6 3 7 7 5 5 5 5 6 5 5 6 6 6 5 6 6 7 6 7 7 7 5 5 6 6 5 5 5 3 3 3 2 4 5 4 5 5 6 8 9 10 10 11 9 9 8 10 11 11 10
4 4 4 4 4 4 4 4 5 5 6 6 4 5 6 6 5 5 5 6 7 8 8 6 6 4 5 5 4 5 5 5 4 6 5 4 4 7 7 5 6 4 4 6 6 6 6 5 5 5 7 7 8 5 4 6 7 6 6 6 3 5 1 1 2 1 4 3 4 4 7 6 2 11 8 10 11 9 9 9 10 10 10 10 9
6 6 5 6 5 5 5 5 5 5 4 5 4 6 7 5 5 6 6 7 6 6 6 6 5 5 5 5 5 5 5 4 5 5 5 7 5 4 6 5 3 4 4 3 3 6 6 3 4 5 8 8 6 5 4 5 5 8 6 3 4 2 1 0 1 2 3 3 3 5 8 8 5 9 9 9 9 7 7 9 9 10 9 9 9
8 8 7 6 7 6 7 6 6 5 5 5 4 7 6 6 5 6 6 6 6 6 6 6 5 6 6 5 5 6 4 6 7 10 8 5 4 4 4 5 3 1 2 1 1 4 6 4 4 6 6 4 5 6 4 5 6 5 3 4 4 0 1 1 1 3 3 4 3 5 6 8 2 8 9 7 6 6 6 6 7 10 9 9 9
7 8 7 8 9 7 7 7 6 6 5 6 6 6 8 6 6 6 7 6 6 6 5 6 6 6 7 6 6 3 6 6 6 6 5 5 5 4 3 3 3 4 4 3 4 4 3 4 3 5 5 4 5 6 5 6 4 5 6 3 3 2 1 1 1 1 3 4 3 3 5 6 3 9 8 8 8 7 6 6 7 9 9 8 8
5 7 8 7 8 8 7 6 7 6 7 6 6 6 8 7 6 7 7 7 7 7 6 6 6 6 6 6 6 2 3 4 6 6 6 5 6 6 6 5 6 5 6 5 6 6 5 5 5 5 6 5 7 4 1 1 1 1 2 2 0 2 1 0 2 1 4 4 3 5 3 4 6 1 8 9 9 8 7 8 9 9 9 9 8
6 5 5 5 7 7 7 6 7 6 7 6 6 6 6 6 7 7 7 7 7 8 7 6 7 6 6 6 5 2 4 2 2 3 5 6 6 6 6 6 6 6 6 6 6 6 7 6 6 6 6 7 4 1 1 1 1 0 2 3 2 1 1 3 2 3 3 4 5 7 3 1 3 3 5 10 11 8 8 10 10 10 10 9 9
5 5 4 5 6 7 7 6 7 6 5 7 6 6 5 6 6 7 7 7 7 8 7 7 7 7 6 6 6 5 6 4 5 5 5 5 5 5 6 6 6 4 5 6 6 6 7 7 7 6 7 5 3 4 4 5 4 4 3 4 3 2 3 2 2 1 1 5 3 6 6 3 1 4 4 7 10 11 9 10 10 10 10 9 9
7 7 7 6 6 7 7 7 6 7 6 6 7 5 5 6 5 6 6 6 6 6 7 6 6 6 6 6 5 6 5 5 7 7 6 5 4 3 4 4 4 4 5 5 6 6 6 7 6 5 5 4 5 4 4 4 5 5 4 4 3 4 4 3 3 2 1 2 3 6 8 6 2 1 4 5 5 13 12 11 11 11 10 10 10
6 6 7 7 6 8 8 8 8 8 7 6 6 6 6 7 7 6 6 6 5 5 5 6 6 6 6 6 6 6 6 7 7 7 7 6 5 4 4 4 4 6 6 5 6 6 6 6 5 4 4 5 6 6 6 5 4 4 5 5 4 4 5 5 3 3 3 4 5 4 8 6 6 2 2 3 3 11 12 11 12 13 11 12 11
6 7 7 7 6 8 9 9 9 8 8 8 7 6 5 5 6 6 6 6 6 6 5 5 5 6 6 8 7 7 7 6 5 6 6 6 6 6 6 6 6 6 6 6 6 5 6 6 6 6 7 6 7 4 5 4 5 5 5 5 6 6 3 5 4 4 4 6 6 5 5 9 8 4 4 4 5 9 14 13 12 14 15 13 12
8 9 8 7 8 8 9 10 10 10 9 9 8 8 7 6 5 6 6 6 6 6 6 5 5 5 5 7 8 7 6 5 4 6 7 7 6 7 7 7 6 6 6 6 6 6 6 5 6 6 6 6 6 5 4 6 5 5 4 5 4 6 5 5 5 4 4 3 2 6 5 6 8 8 5 5 6 5 14 15 14 13 11 11 12
7 8 8 8 10 9 9 10 10 9 10 10 9 8 8 7 6 6 6 6 7 6 6 7 6 6 6 5 7 8 7 6 7 6 7 8 7 7 6 6 6 6 6 6 7 5 5 5 6 6 3 1 2 4 3 5 5 5 3 6 6 5 5 4 5 5 5 4 2 2 5 4 5 8 8 7 6 7 10 16 14 13 13 14 14
8 6 7 9 9 7 8 8 11 11 11 10 9 8 8 7 7 6 6 6 7 7 7 6 7 6 6 7 5 8 8 8 7 6 6 7 7 7 7 7 7 6 7 7 7 6 7 6 5 4 4 3 3 4 4 5 5 5 5 5 6 6 6 5 5 6 5 4 3 4 3 6 6 6 6 9 9 7 7 14 17 15 15 15 15
7 7 10 11 10 8 8 8 10 11 10 11 11 9 9 8 7 7 7 6 6 7 7 6 6 6 6 7 7 7 9 9 8 7 6 6 6 6 7 7 7 7 7 7 7 6 6 7 5 5 4 4 4 6 5 6 5 7 7 5 6 5 4 6 5 5 5 5 6 6 6 4 5 6 6 5 8 9 7 11 18 15 15 15 15
11 10 10 10 11 10 10 9 9 11 11 12 11 9 10 9 8 8 7 6 6 7 7 7 7 6 7 7 9 8 7 10 8 6 6 7 7 7 6 6 7 7 7 7 7 7 7 6 6 6 6 6 6 7 6 7 7 7 6 6 6 6 6 5 6 6 6 7 6 5 3 3 3 5 6 6 6 6 8 7 11 11 14 16 16
11 10 10 10 11 12 11 11 11 13 11 11 10 9 8 9 9 9 9 6 6 6 7 7 7 7 7 8 9 10 9 8 9 7 7 7 7 7 7 7 7 7 7 7 7 7 7 7 6 7 6 7 8 7 7 7 7 6 5 4 6 7 7 7 6 6 5 5 5 5 5 4 4 5 4 5 4 4 7 7 8 10 9 11 13
10 11 11 12 13 12 11 12 11 11 10 10 10 10 9 8 8 8 8 9 7 7 7 7 8 8 7 8 9 10 10 9 8 8 8 7 6 7 7 7 7 7 7 7 8 7 6 7 7 7 7 7 7 8 8 7 6 6 6 6 5 5 6 6 6 6 7 6 6 6 6 6 5 4 4 5 4 5 4 6 6 8 10 10 12
9 11 12 11 10 10 10 12 11 11 10 9 9 8 8 7 6 6 8 9 8 8 8 8 8 8 9 9 9 9 10 11 10 9 8 8 7 7 7 7 7 7 7 7 7 7 7 6 8 7 7 7 7 6 6 7 6 5 6 6 6 6 7 6 6 7 7 7 7 7 6 7 5 4 6 5 4 5 5 5 5 4 6 9 10
9 9 10 10 10 9 9 9 11 11 9 8 8 9 8 8 9 7 7 9 9 9 10 9 8 9 10 10 10 9 9 10 12 11 9 8 8 8 8 8 7 7 8 8 7 7 9 8 8 8 7 7 7 7 5 4 4 6 7 6 6 6 5 6 5 6 6 6 7 7 7 7 7 7 6 6 6 6 6 6 6 7 6 8 10
9 9 9 9 10 11 9 11 11 10 9 10 10 10 11 9 8 10 11 10 10 10 9 10 10 10 11 11 11 9 10 11 11 12 11 9 9 8 8 8 8 8 8 9 8 8 8 9 8 7 8 7 7 7 6 4 3 3 4 5 6 6 6 6 7 7 7 7 7 7 7 7 7 7 7 7 7 6 8 7 7 7 7 6 7
9 9 9 10 11 11 11 11 9 11 11 12 10 10 11 12 12 13 11 10 10 10 11 10 11 10 11 11 10 10 11 11 11 11 11 10 10 9 8 10 9 8 8 7 8 8 8 8 7 7 6 8 6 6 7 5 5 6 5 4 5 4 6 7 7 7 7 7 7 7 7 8 8 7 6 7 7 6 7 8 7 7 7 7 6
8 9 9 7 8 9 10 9 9 11 12 12 11 12 11 11 11 10 11 9 9 9 9 8 8 10 11 11 11 11 12 12 11 12 11 11 11 11 10 9 11 10 9 9 9 10 9 10 10 9 7 5 5 4 7 10 8 4 2 1 4 5 6 6 6 9 9 7 6 7 7 7 8 7 7 7 7 7 6 7 7 7 7 7 7
7 6 7 9 9 9 9 9 10 11 11 12 12 12 12 11 10 8 8 9 8 7 8 7 9 11 12 12 12 12 13 13 12 12 11 11 12 12 11 9 11 11 11 10 11 11 10 10 9 10 8 7 7 8 7 8 7 7 5 9 3 2 4 7 9 7 8 8 7 8 6 7 7 7 6 7 7 7 7 7 8 8 8 7 7
8 9 8 9 8 10 10 11 11 11 10 11 12 10 8 7 7 5 5 6 4 6 8 9 11 12 11 12 15 13 14 14 13 13 13 12 11 11 10 10 9 10 11 11 11 12 12 11 11 10 11 10 9 7 7 8 10 9 7 4 2 4 6 3 5 6 6 6 7 9 8 8 8 8 8 8 7 8 8 8 9 7 7 7 6
9 9 8 9 7 8 9 11 10 9 10 11 12 10 10 10 9 9 10 9 10 9 13 15 13 13 15 12 10 13 14 13 13 13 13 12 12 12 11 10 10 9 10 11 10 9 11 12 13 12 12 11 9 8 7 8 11 12 11 6 7 6 4 4 4 5 3 8 7 9 10 10 9 8 7 8 8 8 8 9 9 9 8 7 8
9 7 8 8 9 8 8 11 11 10 10 9 11 11 11 11 13 13 13 13 13 12 10 9 10 10 8 10 11 11 12 14 13 12 12 13 12 12 12 11 10 9 9 9 10 11 11 12 10 11 12 11 9 9 10 9 7 9 11 13 10 5 2 3 6 2 2 4 4 6 8 9 8 8 9 9 10 9 8 9 9 9 8 8 8
6 6 8 7 9 10 8 9 8 9 9 9 11 13 13 12 12 12 12 12 13 11 10 10 9 8 9 11 10 10 12 13 13 12 12 12 12 12 12 12 11 10 9 10 11 10 9 9 11 12 10 10 12 12 10 8 12 10 11 12 12 10 6 5 3 7 5 3 5 4 4 7 7 8 9 10 10 10 10 9 9 8 8 8 8
4 5 7 7 7 7 8 8 9 9 9 11 11 12 12 12 12 11 12 11 11 10 7 9 9 9 10 10 10 10 11 12 13 12 12 13 12 13 13 12 12 11 10 10 10 11 12 11 11 11 12 11 11 12 10 9 10 11 9 10 9 10 10 8 5 4 6 4 6 7 7 4 5 7 8 10 9 9 10 10 10 9 8 8 8
5 5 5 5 5 5 7 8 9 9 9 10 11 11 12 11 12 12 14 12 10 9 8 9 10 9 11 10 10 10 10 11 13 13 13 13 13 13 13 14 14 12 10 11 11 12 11 11 12 13 13 13 10 11 13 11 9 9 11 9 10 8 7 7 8 8 7 8 9 7 7 9 10 9 8 10 11 11 10 9 9 8 8 8 8
4 4 5 5 5 5 6 7 9 8 7 9 9 11 11 12 13 14 15 15 12 10 10 10 9 9 11 11 11 11 10 11 11 12 14 12 12 13 14 14 13 12 12 12 12 12 12 12 11 12 13 14 11 12 12 12 10 9 10 11 12 12 13 12 12 11 11 9 8 11 8 9 12 9 8 10 10 11 9 8 9 8 9 9 9
Wind_Direction
114 121 119 133 118 116 119 114 110 110 116 120 121 123 122 119 114 112 115 111 106 100 96 92 87 85 84 83 80 80 84 89 85 78 75 75 81 74 70 71 76 80 82 80 81 82 83 84 83 81 80 80 76 76 76 78 77 75 74 75 74 73 76 75 65 80 83 80 79 74 72 70 85 79 73 62 56 51 50 61 58 57 66 69 71
131 119 127 125 124 121 117 115 113 108 108 114 118 119 121 120 118 117 118 113 106 102 99 97 92 90 88 86 83 87 88 81 82 80 78 75 76 80 79 75 74 75 83 84 82 81 82 82 84 85 84 80 82 83 81 80 81 82 74 65 66 72 69 62 56 49 67 86 83 82 73 68 70 74 70 63 59 57 58 59 69 65 68 75 74
118 122 121 127 125 125 118 115 112 112 104 111 115 117 118 119 118 117 119 116 111 108 103 98 95 93 92 91 93 88 79 87 86 87 92 90 83 83 80 82 82 87 86 85 85 83 84 83 83 83 83 84 85 84 83 79 77 76 66 57 56 56 57 57 44 35 33 44 85 83 74 70 69 70 68 60 59 58 64 66 76 79 78 82 81
125 117 116 124 121 124 124 119 116 109 103 101 109 117 121 124 122 121 122 116 111 107 103 99 97 96 93 90 91 91 95 90 84 92 93 89 91 84 81 84 89 90 88 85 85 85 87 88 82 85 83 84 83 83 84 84 80 73 66 59 56 52 49 38 33 24 20 343 316 15 88 78 61 66 65 64 63 62 66 71 77 84 85 86 86
117 117 122 130 124 122 118 119 121 119 112 114 115 119 125 129 127 126 125 112 111 113 107 105 102 98 98 104 95 84 80 87 104 99 92 88 92 90 88 89 89 87 88 89 91 91 86 86 87 82 83 83 84 82 79 82 82 76 65 61 52 38 26 20 13 8 2 351 0 102 104 97 88 72 68 67 67 67 76 79 81 84 86 85 85
122 124 136 136 124 115 117 123 124 127 126 125 125 126 128 130 129 130 124 122 119 115 109 107 105 104 101 95 91 97 98 101 91 93 99 93 86 90 92 90 92 96 94 95 95 94 91 91 96 92 90 91 84 82 83 77 75 75 62 54 37 21 14 6 357 352 348 337 26 41 69 77 54 52 72 73 72 71 76 86 88 87 87 86 82
127 139 146 134 131 118 120 125 125 128 131 128 125 125 128 133 136 131 129 128 126 116 108 102 107 107 101 99 104 101 99 92 99 97 93 94 95 94 101 98 91 89 95 93 93 92 96 100 100 99 92 87 85 84 83 80 75 67 60 46 24 5 359 357 344 338 341 266 53 35 52 64 63 35 69 72 73 79 81 88 92 91 85 83 82
128 135 135 130 118 123 125 125 127 128 131 132 132 133 129 131 137 123 121 129 120 113 106 106 102 102 107 111 107 100 100 99 94 99 98 92 91 91 86 91 94 91 93 98 99 95 97 98 99 101 97 91 88 84 80 75 71 64 55 42 19 4 353 345 344 333 328 71 77 56 57 71 68 49 75 80 72 80 81 88 92 88 86 84 79
135 140 125 103 120 124 128 129 126 128 132 135 139 135 134 135 124 120 128 120 115 112 110 109 110 108 112 112 105 106 109 108 103 99 101 97 91 87 93 93 90 99 99 99 99 102 103 103 101 95 99 98 89 87 82 76 69 61 51 39 18 2 350 343 330 315 292 95 73 51 72 94 82 67 80 78 73 88 85 83 84 87 88 88 88
149 140 119 115 123 129 133 137 130 125 125 129 127 144 138 134 118 104 83 94 118 109 111 116 121 125 124 119 115 111 106 104 105 104 102 104 110 108 94 96 92 95 102 102 103 106 104 104 104 100 94 92 92 85 81 79 71 59 47 35 19 4 348 337 327 322 81 73 79 76 67 79 81 96 85 87 84 84 89 94 94 91 91 90 90
155 127 113 118 133 132 142 136 132 131 129 129 145 135 146 135 136 117 116 111 109 122 134 134 133 129 130 127 121 117 113 111 114 115 111 114 114 97 93 98 114 109 109 114 110 107 107 104 102 97 98 92 91 86 81 77 70 58 45 28 12 357 349 338 327 9 56 57 74 81 110 105 99 118 98 99 98 97 97 100 99 99 96 94 91
145 115 99 112 126 133 134 128 132 133 140 142 136 146 152 118 152 135 132 126 126 124 125 134 118 105 127 131 120 121 115 118 116 120 126 114 108 110 115 112 100 111 112 110 110 108 107 110 108 108 101 98 87 86 85 76 66 56 40 25 11 355 348 336 333 7 65 77 71 38 53 61 64 91 93 102 108 111 109 106 100 96 94 93 93
121 89 103 111 118 127 125 123 127 136 141 142 138 138 154 156 164 142 139 131 130 130 138 119 108 109 123 129 132 127 121 121 124 118 110 114 116 120 118 120 111 109 106 107 105 107 114 109 107 107 105 97 91 87 85 77 65 51 36 18 9 0 344 334 335 19 53 52 72 65 64 70 49 77 91 109 116 115 115 105 101 98 97 97 96
106 112 119 126 122 123 115 109 117 126 137 141 140 143 151 155 149 140 144 137 141 159 133 123 118 111 116 130 140 128 126 127 125 123 124 126 121 120 122 121 130 125 117 112 113 114 107 103 103 101 100 94 93 89 84 80 65 47 29 12 355 352 345 316 300 0 33 64 45 61 58 31 71 85 100 112 115 117 107 103 103 100 99 98 96
110 112 122 117 125 124 115 108 110 118 114 123 135 144 143 154 141 148 146 143 158 128 116 115 120 101 109 124 132 134 129 125 128 131 134 124 117 122 126 116 117 119 117 112 114 114 111 111 108 103 95 94 87 92 91 82 69 45 21 353 349 337 359 355 355 26 42 59 47 67 62 11 94 92 114 116 119 113 104 105 103 102 100 99 97
111 108 119 125 139 132 128 118 119 121 113 112 113 122 147 141 131 155 147 144 135 123 120 117 110 112 113 122 126 122 117 127 136 133 120 123 127 133 127 130 126 131 129 126 124 117 110 107 105 106 100 91 89 88 95 89 72 44 13 343 334 337 341 0 286 75 64 51 45 48 56 47 80 108 120 120 119 111 111 108 106 105 102 100 99
121 129 136 131 142 140 145 135 137 137 129 125 126 77 50 70 67 62 65 112 120 127 132 124 116 115 108 111 121 128 130 134 127 131 130 131 138 141 136 140 145 141 139 135 136 131 123 115 116 109 103 92 87 88 94 91 74 32 336 333 326 331 337 352 343 66 62 62 59 60 39 39 109 113 126 124 118 115 115 112 109 107 106 103 102
116 123 160 140 138 154 156 146 142 153 151 147 151 145 84 72 56 58 118 130 131 123 99 109 109 98 91 87 97 120 132 127 96 97 117 129 132 138 146 144 146 143 139 144 143 132 128 119 115 118 107 101 94 95 97 101 84 342 303 325 326 323 332 336 323 80 73 64 69 51 16 81 119 128 132 126 122 121 120 117 114 111 108 108 106
115 153 174 172 157 160 156 142 156 171 160 164 165 168 147 107 94 101 132 134 125 106 106 109 110 102 103 103 101 94 104 111 112 116 104 100 115 107 131 146 148 135 135 138 130 138 135 133 136 132 121 112 106 100 103 100 110 292 297 305 306 312 311 313 330 81 80 57 66 44 9 100 111 118 138 129 126 124 117 114 113 112 113 113 112
142 176 185 192 170 165 151 148 165 186 164 180 173 161 162 139 126 132 136 125 116 113 109 103 106 113 120 124 123 119 117 119 123 111 117 114 111 118 130 132 144 147 149 154 148 147 146 152 157 146 136 126 119 118 120 128 178 234 277 293 309 319 297 248 346 44 102 84 78 47 351 100 120 125 137 130 129 120 114 113 116 118 117 116 117
153 190 191 192 195 177 168 156 165 192 167 183 172 158 157 142 130 133 130 127 121 117 110 108 108 114 132 143 149 149 146 151 140 135 112 88 110 100 94 121 130 147 149 152 162 164 154 163 164 155 149 149 148 147 157 163 193 220 240 262 287 308 286 38 30 63 59 100 80 36 0 16 128 130 142 135 129 120 113 116 125 122 121 122 122
176 187 198 200 191 184 175 171 176 181 168 180 166 149 152 161 144 141 132 126 122 124 128 137 140 140 143 161 188 203 165 173 154 133 105 119 82 104 103 96 98 103 152 160 167 171 159 164 171 167 178 179 157 161 175 169 210 220 226 251 292 255 326 355 89 63 74 56 69 22 7 357 245 138 149 140 137 126 120 118 122 128 126 125 126
183 183 195 199 195 182 180 187 177 181 179 168 164 136 150 171 172 159 145 147 151 155 156 155 163 158 169 191 217 234 197 128 137 133 130 104 96 85 109 103 87 87 87 98 148 187 166 180 186 194 209 198 177 199 182 179 205 234 241 239 260 290 296 43 102 112 80 80 73 20 5 356 317 141 142 143 142 132 132 130 133 130 134 134 133
183 184 182 195 192 189 182 189 178 181 175 176 165 141 157 175 189 169 154 160 165 178 169 170 177 169 179 196 216 235 135 116 107 123 124 123 109 89 88 106 112 17 60 71 162 192 207 232 230 244 241 237 201 218 197 182 198 214 221 220 200 179 26 2 78 116 111 94 89 32 5 355 56 142 149 149 151 139 142 153 149 144 143 148 143
187 171 182 189 193 191 175 183 180 177 177 179 174 164 162 183 187 170 164 172 168 185 192 178 190 176 180 197 221 230 130 140 147 146 169 159 152 161 166 171 179 203 193 209 179 209 214 236 229 241 247 233 240 237 170 184 198 201 206 167 150 184 163 208 152 75 134 117 97 81 15 352 341 166 166 165 147 137 149 160 166 155 147 151 151
183 174 185 189 186 189 178 175 179 182 176 185 181 184 167 179 181 171 177 173 165 185 199 188 189 184 179 196 221 192 140 142 156 165 167 184 170 177 187 192 187 189 182 206 195 191 201 212 206 217 231 239 239 211 113 119 181 166 119 118 160 162 212 163 134 239 127 149 142 110 74 346 359 257 208 181 173 161 172 157 163 165 159 160 162
168 193 178 186 183 189 180 175 181 185 183 182 189 187 187 181 176 181 178 179 172 180 194 187 181 178 175 187 197 164 140 172 244 182 184 183 193 183 192 195 205 185 184 192 208 196 192 206 205 213 224 231 224 121 112 220 200 48 146 165 200 191 192 214 188 201 143 162 145 138 139 35 358 349 326 201 179 180 176 172 176 174 173 171 170
159 187 191 183 181 188 185 182 180 182 188 187 195 195 188 191 186 181 184 185 178 182 184 182 171 173 173 177 187 176 170 181 203 222 199 187 203 190 194 198 196 208 189 186 202 211 190 206 209 206 221 232 203 188 189 203 198 196 184 173 178 188 214 223 165 151 227 157 163 157 155 144 290 351 313 320 201 169 187 185 187 184 185 181 182
176 180 185 189 180 182 187 189 183 189 191 188 202 204 190 194 193 186 188 184 182 177 176 173 175 172 173 178 181 184 192 196 202 202 186 198 204 203 214 207 191 208 228 218 200 211 200 208 207 203 217 224 226 197 204 226 197 194 174 173 173 210 215 197 179 148 293 155 175 166 164 179 117 260 323 331 209 180 187 190 190 191 189 189 188
189 181 182 190 180 177 187 189 191 191 191 191 202 207 202 189 193 194 181 180 186 179 172 176 178 174 177 181 179 188 199 209 199 185 176 185 189 202 217 219 207 209 211 237 226 199 198 211 200 200 217 221 227 203 196 215 224 196 176 169 182 215 215 184 179 165 211 227 178 185 180 168 170 200 293 289 293 206 196 191 194 193 200 197 195
186 190 188 188 188 175 187 191 194 190 187 190 190 206 209 208 192 190 182 181 178 177 179 183 187 184 176 177 184 193 205 214 200 177 171 179 186 188 205 215 216 220 207 224 230 213 200 196 195 202 215 217 224 208 177 210 220 214 186 170 187 206 222 198 179 189 206 223 165 187 197 182 177 163 208 262 273 223 204 193 205 194 202 199 200
197 200 191 178 181 190 184 192 194 192 187 190 185 193 204 207 202 188 192 179 175 181 185 190 195 198 192 181 186 192 200 218 219 182 176 179 189 191 195 201 211 214 212 216 223 218 205 197 201 207 211 208 204 215 206 209 236 219 188 181 179 181 217 206 192 189 207 242 188 180 186 188 182 181 190 242 256 258 214 203 205 209 210 205 212
208 199 191 176 186 190 188 190 195 196 194 191 188 190 193 198 203 200 195 183 177 178 192 196 195 198 198 190 184 182 185 209 231 203 180 182 185 189 197 199 200 206 210 213 215 216 201 213 222 201 187 173 201 237 232 207 218 243 206 181 179 191 210 192 196 193 201 220 279 216 180 180 190 189 193 209 245 254 238 214 213 211 216 219 215
197 197 186 194 191 189 191 188 192 198 194 193 190 188 192 193 197 202 198 189 178 182 192 199 194 194 194 202 187 181 183 202 219 216 190 182 182 187 191 197 199 201 206 205 207 206 197 212 216 171 187 194 228 238 251 242 227 244 240 196 178 191 199 194 195 200 196 180 212 268 207 187 185 181 195 211 222 239 252 225 218 209 221 222 215
185 189 196 199 189 192 188 197 191 196 190 194 193 187 188 191 193 198 203 195 178 184 189 194 198 194 193 199 205 190 193 198 211 199 201 191 189 193 194 195 194 197 204 199 192 202 198 207 190 178 192 211 216 227 227 234 218 218 231 202 186 196 190 197 194 200 190 192 193 228 236 193 189 186 190 198 217 229 240 239 222 213 223 224 221
193 193 197 192 194 194 189 196 191 196 196 195 194 186 184 190 192 194 199 201 186 186 189 194 194 193 196 201 204 213 202 201 208 196 197 198 192 194 198 194 197 194 198 194 183 195 205 202 198 176 183 208 212 226 222 223 226 227 221 196 194 189 202 203 202 203 195 187 194 217 226 234 204 202 186 187 202 213 217 244 244 230 225 224 226
194 193 193 193 197 195 189 193 193 197 199 194 190 192 187 185 188 188 193 197 200 197 193 191 196 196 196 203 202 207 218 208 204 202 201 202 195 191 195 196 196 195 189 193 193 196 195 198 203 196 184 199 204 213 221 220 224 226 227 209 196 189 197 204 203 200 190 195 207 208 218 229 239 210 200 195 184 201 210 217 242 240 226 211 216
199 197 195 191 197 194 190 194 194 194 196 193 192 192 195 192 189 184 185 194 205 201 201 196 199 198 199 206 200 201 209 215 212 207 204 206 198 190 193 200 197 194 191 193 199 195 195 190 200 203 200 203 209 206 213 216 214 218 220 219 214 196 201 205 206 200 190 197 198 198 203 211 221 209 191 203 172 191 197 201 215 214 205 209 210
206 201 199 198 193 194 191 193 191 188 191 189 190 193 194 200 201 187 187 195 199 201 197 203 200 199 208 206 203 201 202 208 216 217 207 203 204 200 193 200 196 189 192 197 194 192 203 197 194 207 210 210 210 211 205 205 217 217 212 216 215 213 210 203 202 199 200 195 195 197 189 200 212 207 203 205 193 185 190 197 195 208 224 223 218
210 208 205 200 196 194 194 189 193 189 183 185 181 188 190 194 199 202 204 202 200 198 198 202 198 206 208 206 207 206 201 204 207 217 217 204 204 204 195 194 198 186 192 199 199 193 198 204 207 200 208 218 213 216 220 217 223 215 216 222 216 212 211 204 207 212 208 203 199 192 194 199 201 204 200 205 209 181 194 196 197 206 209 217 221
208 208 207 203 200 197 189 196 193 187 183 186 188 186 189 193 200 203 209 205 204 200 201 201 202 207 205 206 207 210 208 205 207 207 214 211 207 204 196 197 199 194 194 203 200 201 199 201 206 201 201 207 220 207 216 188 220 257 238 229 238 227 218 209 212 213 211 208 203 200 200 196 202 196 200 202 210 189 188 196 202 205 208 207 217
211 210 212 207 203 200 197 199 183 189 194 192 191 191 192 195 193 200 201 199 196 199 206 202 204 203 204 205 207 212 216 213 206 206 208 210 207 209 200 196 197 204 201 195 197 201 203 203 195 208 206 203 216 193 202 165 235 211 211 260 270 270 232 220 216 218 213 212 205 197 197 197 200 201 202 203 209 204 191 198 202 204 208 204 206
204 206 213 213 211 208 207 196 194 192 198 196 191 198 198 198 196 200 197 202 205 204 204 200 198 206 206 206 208 211 213 218 210 204 205 207 208 207 209 195 195 198 197 200 198 203 205 204 198 199 202 215 214 205 194 189 216 183 196 338 251 239 273 250 236 220 213 217 201 201 199 200 207 201 199 199 206 212 205 201 205 205 207 204 200
215 216 212 212 210 209 205 201 203 200 199 200 200 201 200 199 201 196 196 196 197 190 191 189 199 207 210 205 209 210 211 216 214 203 206 206 206 208 208 203 199 195 197 199 200 204 202 206 200 197 178 196 204 221 200 194 186 143 216 213 226 199 284 235 216 229 213 215 198 210 196 209 211 209 198 203 205 205 210 208 211 210 207 202 189
209 214 213 212 213 207 205 206 207 206 202 200 201 199 193 196 196 195 183 197 194 173 177 203 205 209 210 208 211 205 209 213 213 206 201 206 206 209 210 211 206 199 196 200 202 203 200 202 199 195 193 195 201 205 214 197 199 195 179 130 231 228 222 231 188 250 216 220 213 205 204 208 211 207 203 213 206 204 206 215 218 212 210 203 195
211 213 209 216 211 207 202 206 210 207 204 200 197 194 196 192 186 189 196 196 204 190 197 200 200 203 208 210 206 205 208 212 213 208 200 201 204 206 209 209 212 207 201 202 204 201 203 201 201 198 201 202 193 189 207 211 203 206 214 210 165 174 184 218 129 259 244 218 212 208 207 212 214 210 211 215 212 212 208 217 215 214 207 202 202
220 205 206 212 213 212 204 204 207 210 205 200 192 195 202 200 199 200 202 202 204 212 209 205 205 211 207 206 207 206 207 210 215 210 202 198 203 203 206 210 212 212 201 201 204 205 204 204 197 199 203 199 194 203 201 201 203 218 215 229 245 242 196 122 210 132 297 283 230 205 217 214 212 211 213 219 219 214 217 216 216 211 205 202 200
214 199 207 207 208 214 211 208 206 206 205 199 195 197 203 204 205 207 208 213 212 213 202 207 205 199 204 207 203 207 206 210 214 213 205 198 199 203 205 209 213 213 201 205 207 207 205 205 202 204 202 199 199 207 207 190 192 213 207 219 234 246 240 224 189 187 174 180 250 263 247 214 217 216 211 218 220 216 218 217 218 207 201 202 198
226 202 211 207 206 210 214 213 211 207 206 200 200 201 203 206 208 208 213 218 217 217 202 202 203 198 205 203 203 204 205 209 213 216 209 204 198 202 202 207 211 214 206 209 208 206 205 201 200 201 203 204 203 207 207 206 198 206 188 219 220 231 239 239 229 218 218 219 245 205 224 247 242 230 216 218 222 220 218 217 216 206 197 200 198
230 224 218 207 207 206 214 217 223 215 208 205 202 203 203 205 212 214 216 217 212 214 203 204 204 197 207 204 203 203 203 205 210 215 216 209 203 200 202 206 209 211 208 209 207 207 207 206 203 204 204 205 205 203 208 212 209 203 198 195 204 218 232 244 237 224 235 214 231 219 196 195 219 228 210 217 222 223 219 216 213 202 200 200 198
247 232 229 210 212 212 218 224 229 225 215 210 202 207 204 205 215 217 217 219 213 210 211 215 203 199 208 207 202 204 201 205 203 211 215 213 211 204 205 207 206 208 210 210 208 207 206 207 207 204 205 205 205 205 210 215 215 208 201 198 205 201 202 208 211 210 214 218 225 243 227 199 212 235 221 218 222 227 222 212 213 209 202 203 200